Location: Augustenthal
(51.7167°N, 10.2833°E)
Time: 22:36:30
(UTC+00:00)

Cosmos 1455 Rocket - Pass Details

Date: 29 September 2021
Orbit: 605 x 628 km, 82.5° (Epoch: 15 October)

Event Time Altitude Azimuth Distance (km) Brightness Sun altitude
Exits shadow 20:05:46 14° 23° (NNE) 1,739 5.5 -28.0°
Drops below altitude 10° 20:06:25 10° 20° (NNE) 1,987 5.8 -28.0°
Sets 20:08:42 0° 15° (NNE) 2,901 6.8 -28.3°
